Flag for U.S.A. Weather past 2 weeks in Daly City, California, U.S.A.

Now
81 °F

Sunny.


Feels Like: 80 °F
Forecast: 62 / 77 °F
Wind: No wind

Location: San Francisco International Airport

Current Time: Oct 1, 2014 at 1:42:00 PM

Latest Report: Oct 1, 2014 at 1:00 PM


Visibility: 10 mi

Pressure: 29.90 "Hg

Humidity: 30%

Dew point: 46 °F

Location of Daly CityLocation

Historic Weather in Daly City — Graph

°F

Daly City temperature yesterday

Maximum temperature yesterday: 75 °F (at 2:56 PM)
Minimum temperature yesterday: 62 °F (at 5:56 AM)
Average temperature yesterday: 67 °F

Past Weeks' High & Low Weather Summary

 TemperatureHumidityPressure
High81 °F (Sep 17, 2:56 PM)94% (Sep 18, 11:56 PM)30.04 "Hg (Sep 18, 11:56 PM)
Low60 °F (Sep 29, 5:56 AM)40% (Oct 1, 10:56 AM)29.74 "Hg (Sep 17, 6:56 PM)
Average68 °F77%29.92 "Hg
* Reported Sep 16 11:56 AM — Oct 1 11:56 AM, Daly City, Weather by CustomWeather, © 2014

Note: Actual official high and low records may vary slightly from our data, if they occured in-between our weather recording intervals... More about our weather records

Advertising

Daly City weather history for previous 24 hours

 ConditionsComfort  
Time TempWeatherWind HumidityBarometerVisibility
11:56 AM
Oct 1
76 °FSunny.No wind42%29.90 "Hg10 mi
10:56 AM76 °FSunny.No wind40%29.92 "Hg10 mi
9:56 AM73 °FSunny.No wind53%29.92 "Hg10 mi
8:56 AM72 °FSunny.No wind55%29.91 "Hg10 mi
7:56 AM67 °FClear.No wind63%29.90 "Hg10 mi
6:56 AM63 °FClear.3 mph78%29.88 "Hg10 mi
5:56 AM61 °FClear.3 mph78%29.87 "Hg10 mi
4:56 AM61 °FClear.No wind75%29.86 "Hg10 mi
3:56 AM61 °FClear.3 mph75%29.85 "Hg10 mi
2:56 AM61 °FClear.5 mph75%29.86 "Hg10 mi
1:56 AM63 °FClear.No wind73%29.85 "Hg10 mi
12:56 AM63 °FClear.6 mph81%29.85 "Hg10 mi
11:56 PM
Sep 30
64 °FClear.5 mph78%29.85 "Hg10 mi
10:56 PM65 °FClear.7 mph76%29.85 "Hg10 mi
9:56 PM66 °FClear.9 mph73%29.84 "Hg10 mi
8:56 PM66 °FClear.13 mph73%29.85 "Hg10 mi
7:56 PM68 °FClear.10 mph65%29.85 "Hg10 mi
6:56 PM69 °FPassing clouds.18 mph63%29.85 "Hg10 mi
5:56 PM71 °FPassing clouds.18 mph61%29.85 "Hg10 mi
4:56 PM73 °FPassing clouds.18 mph57%29.85 "Hg10 mi
3:56 PM74 °FScattered clouds.15 mph60%29.87 "Hg10 mi
2:56 PM75 °FPassing clouds.14 mph55%29.88 "Hg10 mi
1:56 PM74 °FPassing clouds.12 mph57%29.91 "Hg10 mi
Weather by CustomWeather, © 2014

See weather overviewHow to use our weather pages